Location: Tauranga
(37.6860°S, 176.1670°E)
Time: 13:41:48
(UTC+13:00)

ISS - Pass Details

Date: 31 January 2019
Orbit: 403 x 411 km, 51.6° (Epoch: 19 February)

Event Time Altitude Azimuth Distance (km) Brightness Sun altitude
Exits shadow 04:37:09 66° 11° (N) 456 -3.8 -19.2°
Maximum altitude 04:37:22 69° 41° (NE) 447 -3.7 -19.1°
Drops below altitude 10° 04:40:43 10° 126° (SE) 1,495 0.3 -18.6°
Sets 04:42:49 0° 128° (SE) 2,362 1.8 -18.3°
